Effective Sunday, March 17, 2024, the National Weather Service National Data Buoy Center will discontinue its Dial-A-Buoy Interactive Voice Response system. For more information, see Service Change Notice 24-06 (PDF).

Station SBIO1 - South Bass Island, OH Image indicating link to RSS feed of recent meteorological observations for station SBIO1


Conditions at SBIO1 as of
(11:00 am EST)
1600 GMT on 02/27/2024:
     

Click on the graph icon in the table below to see a time series plot of the last five days of that observation.

5-day plot - Wind Direction Wind Direction (WDIR): S ( 180 deg true )
5-day plot - Wind Speed Wind Speed (WSPD): 20 kts
5-day plot - Wind Gust Wind Gust (GST): 21 kts
5-day plot - Atmospheric Pressure Atmospheric Pressure (PRES):29.52 in
5-day plot - Pressure Tendency Pressure Tendency (PTDY):-0.04 in ( Falling )
5-day plot - Air Temperature Air Temperature (ATMP): 59.5 °F
5-day plot - Wind Speed at 10 Meters Wind Speed at 10 meters (WSPD10M): 17 kts
5-day plot - Wind Speed at 20 Meters Wind Speed at 20 meters (WSPD20M): 19 kts
5-day plot -  Wind Speed, Wind Gust and Atmospheric Pressure Combined plot of Wind Speed, Gust, and Air Pressure
Continuous Winds
TIME
(EST)
5-day plot - Wind Direction WDIR 5-day plot - Wind Speed WSPD
11:00 amS ( 182 deg ) 20 kts
10:50 amS ( 181 deg ) 21 kts
10:40 amS ( 180 deg ) 21 kts
10:30 amS ( 177 deg ) 22 kts
10:20 amS ( 176 deg ) 19 kts
10:10 amS ( 175 deg ) 20 kts
 
Peak gust during the measurement hour
TIME
(EST)
5-day plot - Gust Direction GDR 5-day plot - Gust Speed GST
10:27 amS ( 180 deg ) 26 kts
Previous observations
TIME
(EST)
5-day plot - Wind Direction
WDIR
 
5-day plot - Wind Speed
WSPD
kts
5-day plot - Wind Gust
GST
kts
5-day plot - Wave Height
WVHT
ft
5-day plot - Dominant Wave Period
DPD
sec
5-day plot - Average Wave Period
APD
sec
5-day plot - Mean Wave Direction
MWD
 
5-day plot - Atmospheric Pressure
PRES
in
5-day plot - Pressure Tendency
PTDY
in
5-day plot - Air Temperature
ATMP
°F
5-day plot - Water Temperature
WTMP
°F
5-day plot - Dew Point
DEWP
°F
5-day plot - Salinity
SAL
psu
5-day plot - Visibility
VIS
nmi
5-day plot - Tide (above MLLW)
TIDE
ft
2024-02-27 10:00 am S 19 21----29.55-0.02 58.6-----
2024-02-27 09:00 am S 19 21----29.56-0.02 58.1-----
2024-02-27 08:00 amSSE 20 21----29.56-0.03 58.3-----
2024-02-27 07:00 am S 19 21----29.57-0.05 57.9-----
2024-02-27 06:00 am S 19 21----29.58-0.06 57.2-----
2024-02-27 05:00 am S 20 22----29.59-0.08 57.0-----
2024-02-27 04:00 am S 21 23----29.61-0.06 57.0-----
2024-02-27 03:00 amSSE 15 17----29.64-0.05 55.9-----
2024-02-27 02:00 amSSE 17 19----29.67-0.04 56.3-----
2024-02-27 01:00 amSSE 17 18----29.68-0.05 55.0-----
2024-02-27 12:00 amSSE 18 19----29.70-0.06 54.1-----
2024-02-26 11:00 pm SE 15 16----29.71-0.06 52.2-----
2024-02-26 10:00 pm SE 14 14----29.73-0.06 52.9-----
2024-02-26 09:00 pmESE 11 12----29.75-0.04 46.0-----
2024-02-26 08:00 pm E 11 12----29.78-0.04 37.9-----
2024-02-26 07:00 pm E 14 14----29.79-0.04 38.5-----
2024-02-26 06:00 pm E 12 13----29.79-0.06 41.5-----
2024-02-26 05:00 pm E 13 14----29.81-0.07 40.5-----
2024-02-26 04:00 pmENE 13 17----29.83-0.08 39.9-----
2024-02-26 03:00 pmENE 8 13----29.85-0.08 37.9-----
2024-02-26 02:00 pmENE 9 13----29.88-0.06 39.0-----
2024-02-26 01:00 pm NE 7 12----29.91-0.04 41.5-----
2024-02-26 12:00 pmENE 5 8----29.93+0.00 42.4-----